"Gas Day","BTU","CHDP","Wobbe Index","CO2","N2","Gravity","Methane","Ethane","Propane","Ibutane","Nbutane","Ipentane","Npentane","C6+"
"2024-05-12 00:00:00.0","1075.3562","-52.1768","1389.3383","0.0888","0.3861","0.5991","91.3525","7.8358","0.2787","0.0258","0.0215","0.0047","0.0023","0.0037"
"2024-05-11 00:00:00.0","1073.4010","-53.7146","1388.5633","0.0765","0.3796","0.5976","91.6553","7.5480","0.2813","0.0266","0.0221","0.0049","0.0023","0.0034"
"2024-05-10 00:00:00.0","1075.0305","-51.7838","1389.2583","0.0862","0.3817","0.5988","91.4309","7.7468","0.2942","0.0272","0.0224","0.0047","0.0022","0.0037"
"2024-05-09 00:00:00.0","1076.9651","-51.3362","1390.2483","0.0869","0.3873","0.6001","91.1877","7.9619","0.3154","0.0275","0.0223","0.0047","0.0026","0.0039"
"2024-05-08 00:00:00.0","1080.1702","-51.2520","1392.1022","0.0828","0.3870","0.6021","90.8218","8.2909","0.3552","0.0283","0.0234","0.0047","0.0022","0.0038"
"2024-05-07 00:00:00.0","1078.1335","-51.4129","1390.9121","0.0871","0.3858","0.6008","91.0366","8.1153","0.3149","0.0267","0.0226","0.0049","0.0025","0.0037"
"2024-05-06 00:00:00.0","1078.6630","-53.1064","1391.2834","0.0844","0.3837","0.6011","90.9659","8.2021","0.3043","0.0268","0.0222","0.0049","0.0024","0.0034"
"2024-05-05 00:00:00.0","1078.5503","-53.5519","1391.4046","0.0740","0.3845","0.6008","90.9988","8.1816","0.3022","0.0267","0.0220","0.0047","0.0023","0.0034"
"2024-05-04 00:00:00.0","1079.2501","-53.0028","1391.6188","0.0844","0.3829","0.6015","90.8936","8.2714","0.3093","0.0265","0.0218","0.0046","0.0022","0.0034"
"2024-05-03 00:00:00.0","1081.1953","-54.3794","1392.9170","0.0767","0.3768","0.6025","90.6520","8.5437","0.2954","0.0254","0.0205","0.0043","0.0021","0.0031"
"2024-05-02 00:00:00.0","1081.5669","-54.8347","1392.8626","0.0879","0.3811","0.6030","90.5527","8.6404","0.2845","0.0239","0.0202","0.0042","0.0021","0.0031"
"2024-05-01 00:00:00.0","1079.8746","-54.4450","1392.0888","0.0834","0.3744","0.6017","90.8096","8.3867","0.2897","0.0264","0.0201","0.0044","0.0020","0.0031"
"2024-04-30 00:00:00.0","1078.4076","-53.4379","1391.1853","0.0820","0.3839","0.6009","90.9963","8.1804","0.2988","0.0273","0.0212","0.0046","0.0022","0.0034"
"2024-04-29 00:00:00.0","1080.0409","-51.8592","1391.9147","0.0894","0.3868","0.6021","90.7736","8.3821","0.3070","0.0293","0.0220","0.0042","0.0018","0.0038"
"2024-04-28 00:00:00.0","1078.8537","-54.4777","1391.3143","0.0914","0.3793","0.6013","90.9235","8.2513","0.2959","0.0278","0.0211","0.0045","0.0021","0.0031"
"2024-04-27 00:00:00.0","1078.0306","-54.8263","1390.7459","0.0943","0.3839","0.6008","91.0089","8.1591","0.2973","0.0274","0.0209","0.0036","0.0014","0.0031"
"2024-04-26 00:00:00.0","1079.9776","-53.4182","1391.8708","0.0941","0.3807","0.6020","90.7609","8.4153","0.2923","0.0266","0.0206","0.0043","0.0019","0.0034"
"2024-04-25 00:00:00.0","1079.0184","-54.5061","1391.4634","0.0865","0.3821","0.6013","90.8977","8.2848","0.2942","0.0256","0.0197","0.0043","0.0020","0.0031"
"2024-04-24 00:00:00.0","1073.4080","-57.6621","1388.5581","0.0773","0.3792","0.5976","91.6349","7.5774","0.2784","0.0247","0.0192","0.0042","0.0019","0.0028"
"2024-04-23 00:00:00.0","1075.1406","-54.4488","1388.9074","0.0984","0.3933","0.5992","91.3389","7.8322","0.2814","0.0267","0.0201","0.0038","0.0020","0.0034"
"2024-04-22 00:00:00.0","1074.4610","-52.1474","1388.4321","0.0915","0.3851","0.5989","91.4279","7.7410","0.2815","0.0265","0.0203","0.0049","0.0021","0.0032"
"2024-04-21 00:00:00.0","1074.1464","-54.6506","1388.7439","0.0833","0.3852","0.5982","91.5280","7.6621","0.2836","0.0271","0.0206","0.0047","0.0022","0.0032"
"2024-04-20 00:00:00.0","1074.7700","-55.6357","1389.0286","0.0850","0.3875","0.5987","91.4348","7.7507","0.2868","0.0260","0.0197","0.0045","0.0020","0.0030"
"2024-04-19 00:00:00.0","1075.4147","-56.6616","1389.4242","0.0861","0.3825","0.5991","91.3769","7.7937","0.3057","0.0261","0.0196","0.0045","0.0020","0.0028"
"2024-04-18 00:00:00.0","1073.9620","-53.4959","1388.4414","0.0930","0.3862","0.5983","91.5181","7.6720","0.2719","0.0267","0.0214","0.0050","0.0022","0.0034"
"2024-04-17 00:00:00.0","1072.3416","-56.0578","1387.6946","0.0914","0.3767","0.5971","91.7464","7.4584","0.2719","0.0258","0.0198","0.0046","0.0019","0.0029"
"2024-04-16 00:00:00.0","1073.9255","-53.3826","1388.4754","0.0920","0.3836","0.5982","91.5397","7.6469","0.2780","0.0276","0.0212","0.0051","0.0023","0.0034"
"2024-04-15 00:00:00.0","1074.1733","-53.3026","1388.6319","0.0906","0.3843","0.5984","91.5125","7.6714","0.2813","0.0278","0.0215","0.0048","0.0023","0.0034"
"2024-04-14 00:00:00.0","1073.9869","-53.0314","1388.5114","0.0919","0.3837","0.5983","91.5418","7.6380","0.2820","0.0286","0.0227","0.0052","0.0026","0.0035"
"2024-04-13 00:00:00.0","1074.1679","-51.9869","1388.5101","0.0952","0.3868","0.5985","91.5120","7.6526","0.2913","0.0280","0.0226","0.0052","0.0026","0.0037"
"2024-04-12 00:00:00.0","1075.1499","-54.9811","1389.1716","0.0886","0.3879","0.5990","91.3776","7.8056","0.2824","0.0267","0.0211","0.0050","0.0021","0.0031"
"2024-04-11 00:00:00.0","1073.9958","-52.5669","1388.2098","0.1026","0.3925","0.5985","91.4670","7.7168","0.2634","0.0259","0.0211","0.0046","0.0025","0.0036"
"2024-04-10 00:00:00.0","1074.0413","-51.1646","1388.2668","0.1005","0.3934","0.5985","91.4421","7.7574","0.2559","0.0238","0.0181","0.0032","0.0015","0.0040"
"2024-04-09 00:00:00.0","1075.8117","-53.9278","1389.5284","0.0895","0.3872","0.5994","91.2827","7.9095","0.2732","0.0263","0.0212","0.0049","0.0023","0.0034"
"2024-04-08 00:00:00.0","1075.5991","-53.8078","1389.2320","0.0976","0.3896","0.5995","91.2721","7.9209","0.2645","0.0254","0.0200","0.0045","0.0021","0.0034"
"2024-04-07 00:00:00.0","1075.8084","-53.7728","1389.3716","0.0975","0.3876","0.5996","91.2592","7.9276","0.2712","0.0262","0.0204","0.0046","0.0022","0.0034"
"2024-04-06 00:00:00.0","1076.3394","-53.3013","1389.7823","0.0917","0.3871","0.5998","91.1988","8.0013","0.2640","0.0263","0.0206","0.0046","0.0022","0.0034"
"2024-04-05 00:00:00.0","1074.8556","-53.0574","1389.0292","0.0867","0.3889","0.5988","91.4109","7.7833","0.2709","0.0272","0.0214","0.0050","0.0023","0.0035"
"2024-04-04 00:00:00.0","1071.0127","-52.6409","1386.7986","0.0883","0.3939","0.5964","91.9139","7.2581","0.2843","0.0279","0.0223","0.0051","0.0026","0.0036"
"2024-04-03 00:00:00.0","1075.8013","-51.8028","1388.9808","0.1152","0.3910","0.5999","91.2555","7.8752","0.2992","0.0294","0.0230","0.0054","0.0024","0.0037"
"2024-04-02 00:00:00.0","1074.1557","-52.9549","1388.2942","0.1020","0.3933","0.5986","91.4604","7.7095","0.2759","0.0278","0.0205","0.0048","0.0023","0.0036"
"2024-04-01 00:00:00.0","1076.6897","-50.0867","1389.7327","0.1015","0.3914","0.6002","91.1418","8.0303","0.2723","0.0287","0.0229","0.0046","0.0023","0.0042"
"2024-03-31 00:00:00.0","1077.6185","-53.4955","1390.2177","0.1022","0.3933","0.6009","91.0000","8.1772","0.2696","0.0271","0.0205","0.0043","0.0023","0.0034"
"2024-03-30 00:00:00.0","1077.0621","-54.0188","1389.9874","0.1007","0.3892","0.6004","91.1002","8.0655","0.2888","0.0262","0.0197","0.0045","0.0021","0.0034"
"2024-03-29 00:00:00.0","1076.6973","-52.3131","1389.6453","0.1072","0.3907","0.6003","91.1309","8.0290","0.2836","0.0272","0.0209","0.0047","0.0023","0.0036"
"2024-03-28 00:00:00.0","1078.3338","-52.7832","1390.8164","0.0948","0.3881","0.6011","90.9499","8.2271","0.2818","0.0270","0.0209","0.0047","0.0022","0.0035"
"2024-03-27 00:00:00.0","1077.4333","-52.8105","1390.4455","0.0873","0.3891","0.6004","91.0805","8.1046","0.2801","0.0270","0.0208","0.0048","0.0023","0.0035"
"2024-03-26 00:00:00.0","1076.3510","-55.4137","1389.7730","0.0925","0.3870","0.5998","91.2070","7.9803","0.2754","0.0272","0.0206","0.0050","0.0019","0.0030"
"2024-03-25 00:00:00.0","1077.6225","-52.5391","1390.1863","0.1068","0.3891","0.6009","91.0076","8.1617","0.2765","0.0268","0.0206","0.0051","0.0022","0.0036"
"2024-03-24 00:00:00.0","1078.0680","-53.0943","1390.5628","0.0986","0.3910","0.6011","90.9646","8.2095","0.2783","0.0271","0.0204","0.0049","0.0023","0.0034"
"2024-03-23 00:00:00.0","1078.0980","-53.6017","1390.7066","0.0914","0.3916","0.6010","90.9755","8.2050","0.2789","0.0269","0.0204","0.0048","0.0022","0.0034"
"2024-03-22 00:00:00.0","1077.7008","-55.3893","1390.4646","0.0949","0.3881","0.6007","91.0379","8.1330","0.2870","0.0278","0.0209","0.0051","0.0023","0.0030"
"2024-03-21 00:00:00.0","1078.1760","-56.0772","1390.5977","0.0995","0.3921","0.6011","90.9142","8.2806","0.2627","0.0239","0.0181","0.0041","0.0019","0.0029"
"2024-03-20 00:00:00.0","1078.7360","-58.7791","1391.2029","0.0819","0.3951","0.6012","90.8549","8.3720","0.2474","0.0231","0.0175","0.0042","0.0015","0.0025"
"2024-03-19 00:00:00.0","1077.4958","-55.1126","1390.1101","0.1048","0.3930","0.6008","90.9930","8.1942","0.2620","0.0251","0.0186","0.0047","0.0016","0.0031"
"2024-03-18 00:00:00.0","1078.0734","-54.8790","1390.7165","0.0921","0.3888","0.6009","90.9713","8.2213","0.2708","0.0263","0.0196","0.0048","0.0020","0.0031"
"2024-03-17 00:00:00.0","1079.0768","-54.8296","1391.4072","0.0861","0.3867","0.6015","90.8934","8.2776","0.2957","0.0287","0.0217","0.0049","0.0022","0.0031"
"2024-03-16 00:00:00.0","1079.1927","-53.4643","1391.1439","0.0998","0.3926","0.6018","90.8149","8.3534","0.2812","0.0274","0.0202","0.0051","0.0020","0.0034"
"2024-03-15 00:00:00.0","1079.8017","-54.9571","1391.6546","0.0936","0.3881","0.6020","90.7469","8.4393","0.2789","0.0251","0.0188","0.0043","0.0020","0.0031"
"2024-03-14 00:00:00.0","1081.7278","-54.2513","1392.6360","0.0963","0.3910","0.6033","90.4962","8.6747","0.2854","0.0276","0.0196","0.0043","0.0018","0.0032"
"2024-03-13 00:00:00.0","1080.5701","-52.7463","1391.7939","0.1107","0.3853","0.6028","90.6342","8.5213","0.2915","0.0279","0.0199","0.0040","0.0018","0.0035"
"2024-03-12 00:00:00.0","1082.1960","-52.6286","1392.6802","0.1125","0.3838","0.6038","90.4466","8.6878","0.3095","0.0282","0.0212","0.0049","0.0022","0.0034"
"2024-03-11 00:00:00.0","1081.2437","-52.7808","1392.1278","0.1139","0.3838","0.6032","90.5382","8.6225","0.2833","0.0269","0.0207","0.0050","0.0023","0.0034"
"2024-03-10 00:00:00.0","1080.0467","-53.6299","1391.6522","0.1025","0.3858","0.6023","90.7169","8.4521","0.2840","0.0275","0.0209","0.0051","0.0019","0.0034"
"2024-03-09 00:00:00.0","1078.6980","-56.5881","1391.4294","0.0813","0.3752","0.6010","90.9529","8.2571","0.2773","0.0267","0.0199","0.0048","0.0021","0.0028"
"2024-03-08 00:00:00.0","1078.8691","-53.9405","1390.3839","0.1303","0.3934","0.6021","90.7766","8.3650","0.2788","0.0274","0.0201","0.0035","0.0016","0.0034"
"2024-03-07 00:00:00.0","1077.2772","-52.5397","1389.8904","0.1126","0.3890","0.6008","91.0256","8.1495","0.2669","0.0262","0.0200","0.0045","0.0021","0.0036"
"2024-03-06 00:00:00.0","1077.9438","-52.3773","1390.5875","0.0952","0.3883","0.6009","91.0053","8.1695","0.2803","0.0281","0.0218","0.0052","0.0027","0.0036"
"2024-03-05 00:00:00.0","1078.1867","-54.3172","1390.6091","0.1009","0.3888","0.6011","90.9521","8.2206","0.2771","0.0286","0.0214","0.0049","0.0023","0.0031"
"2024-03-04 00:00:00.0","1078.4166","-52.8335","1390.4315","0.1204","0.3844","0.6016","90.8891","8.2676","0.2779","0.0284","0.0214","0.0051","0.0023","0.0034"
"2024-03-03 00:00:00.0","1077.8196","-52.1632","1389.9816","0.1266","0.3845","0.6013","90.9616","8.1808","0.2846","0.0288","0.0218","0.0052","0.0024","0.0036"
"2024-03-02 00:00:00.0","1077.5497","-53.7065","1390.1046","0.1116","0.3850","0.6009","91.0149","8.1532","0.2771","0.0274","0.0207","0.0047","0.0022","0.0034"
"2024-03-01 00:00:00.0","1079.8269","-53.0752","1391.3697","0.1133","0.3826","0.6023","90.7028","8.4809","0.2644","0.0260","0.0199","0.0045","0.0021","0.0034"
"2024-02-29 00:00:00.0","1077.9637","-51.5095","1390.3227","0.1139","0.3823","0.6011","90.9975","8.1404","0.3033","0.0288","0.0228","0.0049","0.0024","0.0037"
"2024-02-28 00:00:00.0","1081.4621","-55.4200","1392.7176","0.0910","0.3802","0.6030","90.6141","8.5338","0.3170","0.0298","0.0235","0.0054","0.0023","0.0029"
"2024-02-27 00:00:00.0","1077.3672","-53.8970","1389.9318","0.1205","0.3770","0.6008","91.0808","8.0498","0.3065","0.0301","0.0235","0.0062","0.0024","0.0032"
"2024-02-26 00:00:00.0","1077.8485","-52.2646","1390.0865","0.1243","0.3810","0.6012","90.9442","8.2287","0.2629","0.0272","0.0209","0.0049","0.0023","0.0036"
"2024-02-25 00:00:00.0","1078.7204","-52.2699","1390.5558","0.1247","0.3816","0.6018","90.8335","8.3336","0.2672","0.0274","0.0212","0.0050","0.0022","0.0036"
"2024-02-24 00:00:00.0","1079.4024","-49.1263","1390.8121","0.1305","0.3826","0.6023","90.7516","8.3927","0.2790","0.0285","0.0227","0.0054","0.0027","0.0042"
"2024-02-23 00:00:00.0","1078.4143","-49.9833","1390.6814","0.1073","0.3831","0.6013","90.9778","8.1514","0.3096","0.0307","0.0265","0.0061","0.0036","0.0040"
"2024-02-22 00:00:00.0","1078.7323","-49.2237","1390.8481","0.1148","0.3720","0.6015","90.9490","8.1776","0.3173","0.0315","0.0258","0.0051","0.0026","0.0042"
"2024-02-21 00:00:00.0","1078.1801","-48.8229","1390.0718","0.1365","0.3775","0.6016","90.9396","8.1810","0.2953","0.0318","0.0250","0.0062","0.0029","0.0042"
"2024-02-20 00:00:00.0","1077.7974","-47.3287","1390.0711","0.1251","0.3783","0.6012","91.0066","8.1311","0.2894","0.0308","0.0252","0.0058","0.0029","0.0048"
"2024-02-19 00:00:00.0","1079.3684","-49.8951","1391.0479","0.1201","0.3775","0.6021","90.8067","8.3413","0.2872","0.0301","0.0247","0.0055","0.0028","0.0041"
"2024-02-18 00:00:00.0","1079.0286","-49.4579","1390.6429","0.1315","0.3781","0.6020","90.8048","8.3463","0.2756","0.0283","0.0232","0.0053","0.0027","0.0042"
"2024-02-17 00:00:00.0","1081.0888","-52.2879","1392.2414","0.1036","0.3831","0.6030","90.5952","8.5730","0.2804","0.0290","0.0236","0.0058","0.0028","0.0035"
"2024-02-16 00:00:00.0","1079.3745","-52.3132","1391.1765","0.1081","0.3857","0.6020","90.7867","8.3855","0.2726","0.0282","0.0221","0.0051","0.0024","0.0036"
"2024-02-15 00:00:00.0","1077.9177","-49.9913","1390.4218","0.1039","0.3876","0.6010","90.9890","8.1819","0.2748","0.0276","0.0229","0.0054","0.0029","0.0042"
"2024-02-14 00:00:00.0","1076.8101","-48.7600","1389.4605","0.1244","0.3845","0.6006","91.1198","8.0115","0.2925","0.0297","0.0247","0.0057","0.0029","0.0044"
"2024-02-13 00:00:00.0","1076.6843","-49.8906","1389.6426","0.1115","0.3837","0.6003","91.1562","7.9983","0.2844","0.0297","0.0238","0.0056","0.0027","0.0041"
